Location: Orangeville
(43.9200°N, 80.0943°W)
Time: 10:38:16
(UTC-05:00)

X-37B - Visible Passes

Search period start: 03 December 2021 00:00
Search period end: 13 December 2021 00:00
Orbit: 330 x 341 km, 45.0° (Epoch: 20 November)

Date Brightness Start Highest point End Pass type
(mag) Time Alt. Az. Time Alt. Az. Time Alt. Az.
05 Dec 3.8 19:14:55 10° SW 19:14:56 10° SW 19:14:56 10° SW visible
06 Dec 2.3 18:00:50 10° S 18:02:47 17° SSE 18:03:24 16° SE visible
07 Dec 1.2 18:20:20 10° SW 18:23:01 36° SSE 18:23:02 36° SSE visible
08 Dec 1.4 18:40:31 10° WSW 18:42:38 44° SW 18:42:38 44° SW visible
09 Dec 1.4 17:25:46 10° SW 17:28:27 36° SSE 17:30:58 11° E visible
09 Dec 2.9 19:00:58 10° W 19:02:11 22° W 19:02:11 22° W visible
10 Dec 0.4 17:45:56 10° WSW 17:48:48 72° SSE 17:50:30 21° E visible
10 Dec 3.9 19:21:29 10° W 19:21:44 12° W 19:21:44 12° W visible
11 Dec 0.3 18:06:23 10° W 18:09:16 75° N 18:10:02 43° ENE visible
12 Dec 0.5 18:26:55 10° W 18:29:35 64° NNW 18:29:35 64° NNW visible
